Temp
14 14 15 15 15 15 15 16 16 16 17 17 18 18 19 19 19 20 21 23 23 23 22 22 22 23 24 24 26 26 26 26 28 29 30 31 31 30 30 29 28 28 27 26 24
13 13 14 14 15 15 15 15 15 16 16 16 17 18 18 19 19 21 23 22 22 23 22 22 22 24 25 25 26 27 26 27 29 30 30 30 30 30 30 29 29 28 27 25 24
13 13 13 13 14 14 15 15 15 15 15 16 17 17 18 17 18 23 24 23 23 22 23 23 24 24 25 26 26 27 27 28 29 29 29 29 29 29 30 29 29 28 28 25 24
11 11 12 13 13 14 14 14 15 15 15 16 16 17 17 17 21 23 23 23 23 22 21 23 24 25 26 27 27 27 28 29 29 29 29 29 29 29 29 29 29 28 27 26 24
7 10 11 11 12 13 13 14 14 14 15 15 15 16 16 16 18 21 21 21 22 21 21 22 24 25 26 27 27 28 29 29 29 28 28 29 29 29 29 29 28 28 27 26 26
4 5 6 8 10 11 13 13 14 14 14 14 15 15 14 15 20 20 21 20 21 22 21 22 23 25 26 27 28 28 29 29 29 28 29 29 29 29 29 28 28 27 27 26 26
4 4 4 4 6 10 11 12 13 14 14 15 14 13 11 15 20 21 22 22 21 20 21 22 22 24 26 27 27 28 28 29 29 29 29 29 28 28 28 28 28 27 27 26 26
4 4 4 4 4 5 9 10 12 13 13 14 13 12 11 16 19 21 21 21 22 23 23 23 24 24 25 26 27 27 27 27 29 30 30 29 27 29 29 29 28 28 27 27 25
3 4 4 4 4 4 5 8 10 11 12 12 12 12 15 18 18 22 21 21 23 23 23 23 24 24 24 25 25 26 26 26 28 30 30 30 27 29 29 29 29 28 28 27 26
4 4 4 3 4 4 5 7 11 10 12 10 11 13 15 18 19 20 20 22 22 23 23 23 24 25 25 25 23 25 26 27 27 29 30 29 28 29 29 29 28 28 28 28 26
4 4 3 3 3 3 4 6 11 10 9 14 16 17 21 21 21 21 22 22 22 23 23 23 24 23 24 25 26 27 27 28 29 31 28 28 29 29 30 29 29 29 29 28 26
3 4 4 3 3 3 3 5 11 12 14 14 15 17 18 21 22 22 23 22 23 23 24 24 23 24 26 26 26 26 27 27 29 30 30 29 29 29 29 29 29 29 28 28 26
3 3 4 3 4 4 4 6 8 11 13 15 16 16 17 19 21 22 22 23 24 23 23 23 24 25 26 26 26 27 27 27 28 29 29 29 28 28 29 30 30 29 28 28 25
3 3 3 3 5 6 8 9 10 11 13 17 19 19 19 19 21 22 23 23 24 23 24 25 26 26 26 26 27 26 28 28 28 27 26 28 26 28 29 29 30 29 28 27 25
3 3 3 2 5 5 8 10 11 11 13 24 23 22 22 21 23 22 23 24 23 24 25 24 26 26 27 27 28 28 29 29 28 27 27 26 25 27 29 28 29 29 29 27 25
3 3 3 3 3 5 6 8 10 12 14 22 27 24 23 22 22 26 23 23 24 25 26 26 28 28 28 29 29 29 29 28 28 27 25 26 26 26 28 29 29 29 29 27 25
3 3 3 2 4 6 7 7 10 12 20 22 25 25 23 23 23 23 23 23 24 23 24 26 26 28 29 28 29 29 27 25 24 24 24 27 26 27 29 29 29 29 28 26 24
3 3 3 2 3 5 5 7 9 14 16 25 26 25 23 25 24 23 24 23 25 24 24 24 25 27 29 29 28 28 27 25 23 23 25 28 26 28 29 30 29 29 28 25 24
2 2 2 3 4 4 4 5 10 13 19 19 21 22 24 25 26 24 24 24 25 25 24 25 26 29 29 30 30 28 26 28 26 27 26 27 28 29 29 29 29 28 27 25 23
2 2 2 4 4 4 4 5 11 14 16 17 16 20 19 24 25 25 24 26 25 26 27 26 26 29 29 30 30 29 29 26 26 23 23 26 27 27 27 28 28 28 26 24 23
2 2 5 4 4 3 4 7 10 11 13 13 15 16 17 17 21 25 25 26 27 27 27 27 27 28 30 28 27 28 28 27 27 26 24 24 26 29 28 28 25 25 26 24 22
2 2 5 5 3 2 4 8 9 11 11 12 14 14 15 17 18 19 25 26 28 28 26 27 26 25 28 30 30 28 27 27 25 24 26 26 26 29 29 28 28 26 25 23 23
3 5 4 3 4 4 7 8 9 10 11 12 12 13 14 15 15 20 22 28 29 27 27 26 25 25 26 29 29 27 28 28 27 26 25 25 26 29 29 28 28 26 25 24 23
2 3 5 3 4 5 7 8 8 9 11 12 10 12 12 12 16 17 20 25 29 29 26 25 25 24 25 27 28 26 27 28 27 25 25 26 27 27 28 28 28 27 25 24 23
2 5 6 5 5 5 4 6 8 7 11 12 11 11 11 12 14 17 16 14 19 25 25 25 23 26 27 28 29 28 27 27 27 27 26 26 27 28 28 28 28 27 26 25 24
2 4 5 5 6 6 7 7 9 10 11 10 10 12 12 11 13 13 13 14 15 15 26 25 23 25 26 27 28 27 28 27 28 28 27 27 27 29 29 28 29 27 26 26 25
2 2 3 4 6 6 7 7 8 9 11 12 11 11 10 10 13 13 14 14 15 15 17 24 24 24 24 27 27 26 28 28 27 28 28 26 27 29 29 29 29 27 26 26 25
Height
1520 1518 1517 1516 1516 1515 1513 1510 1511 1509 1507 1508 1507 1505 1501 1501 1500 1497 1492 1497 1500 1502 1503 1504 1504 1508 1508 1506 1504 1503 1502 1498 1488 1479 1471 1468 1469 1469 1470 1473 1477 1479 1482 1487 1488
1512 1513 1512 1512 1510 1509 1508 1508 1509 1506 1505 1505 1503 1501 1498 1498 1495 1488 1489 1493 1495 1496 1499 1502 1500 1504 1504 1501 1500 1497 1496 1489 1480 1472 1471 1470 1471 1472 1472 1469 1470 1473 1478 1481 1484
1507 1506 1506 1506 1506 1505 1504 1504 1503 1502 1502 1501 1499 1497 1496 1496 1492 1483 1481 1484 1487 1490 1494 1499 1499 1498 1498 1496 1493 1490 1487 1483 1478 1475 1474 1473 1471 1471 1467 1467 1468 1472 1474 1477 1481
1503 1502 1501 1500 1500 1499 1499 1498 1497 1497 1497 1497 1495 1492 1493 1495 1491 1477 1479 1482 1482 1486 1490 1492 1494 1493 1487 1486 1486 1485 1477 1475 1473 1473 1474 1472 1470 1468 1466 1467 1468 1470 1473 1475 1475
1498 1497 1497 1496 1495 1493 1493 1493 1493 1492 1492 1492 1490 1487 1490 1489 1476 1479 1479 1479 1479 1482 1484 1486 1487 1484 1480 1477 1480 1476 1471 1469 1469 1471 1473 1467 1464 1464 1464 1465 1467 1468 1471 1472 1474
1494 1492 1491 1489 1488 1488 1488 1488 1487 1487 1487 1485 1483 1484 1485 1478 1473 1476 1477 1477 1477 1478 1479 1481 1480 1480 1477 1475 1472 1469 1466 1463 1467 1467 1464 1461 1459 1461 1461 1464 1465 1468 1470 1471 1470
1490 1488 1486 1484 1482 1482 1481 1480 1480 1480 1479 1480 1480 1478 1475 1461 1466 1468 1473 1473 1473 1474 1475 1476 1479 1479 1473 1469 1469 1465 1464 1460 1458 1458 1457 1458 1456 1456 1459 1459 1462 1462 1464 1466 1468
1485 1483 1482 1480 1478 1476 1475 1473 1473 1474 1474 1476 1475 1474 1460 1457 1460 1461 1463 1465 1469 1470 1471 1472 1474 1474 1472 1470 1465 1463 1462 1463 1451 1450 1447 1450 1459 1451 1454 1452 1456 1455 1458 1460 1462
1483 1481 1479 1477 1476 1473 1470 1468 1469 1469 1470 1471 1471 1471 1456 1450 1445 1447 1457 1459 1462 1464 1466 1467 1470 1467 1471 1470 1467 1459 1464 1459 1449 1440 1437 1436 1448 1447 1449 1448 1447 1449 1451 1453 1456
1480 1478 1476 1474 1472 1469 1467 1465 1465 1464 1465 1467 1468 1473 1452 1438 1437 1442 1447 1453 1457 1459 1461 1462 1462 1461 1459 1462 1463 1461 1455 1449 1448 1434 1427 1434 1439 1438 1440 1441 1442 1444 1442 1444 1448
1478 1476 1474 1471 1468 1466 1465 1465 1465 1462 1459 1447 1440 1433 1429 1432 1435 1437 1440 1446 1451 1452 1452 1455 1456 1451 1448 1445 1448 1446 1442 1440 1428 1420 1439 1437 1433 1431 1433 1435 1435 1434 1434 1437 1441
1475 1473 1470 1468 1466 1463 1463 1465 1456 1460 1447 1440 1434 1430 1428 1430 1431 1430 1434 1437 1441 1441 1446 1450 1441 1440 1441 1441 1444 1443 1443 1438 1427 1421 1424 1426 1427 1426 1428 1429 1429 1429 1430 1431 1436
1473 1470 1468 1466 1463 1458 1457 1455 1454 1457 1448 1427 1420 1418 1421 1427 1421 1422 1426 1427 1427 1436 1435 1433 1426 1436 1433 1433 1437 1437 1439 1437 1435 1425 1423 1425 1430 1427 1422 1419 1419 1420 1423 1428 1433
1469 1467 1466 1464 1464 1459 1456 1454 1455 1459 1445 1405 1395 1388 1404 1417 1405 1413 1414 1420 1420 1423 1427 1420 1424 1422 1426 1424 1426 1435 1424 1425 1427 1435 1447 1425 1445 1425 1419 1415 1411 1414 1418 1423 1430
1465 1463 1463 1462 1459 1457 1457 1453 1455 1457 1441 1362 1363 1369 1375 1384 1385 1387 1403 1409 1409 1413 1419 1403 1411 1415 1412 1415 1415 1419 1414 1416 1421 1431 1434 1437 1445 1428 1415 1413 1406 1411 1414 1418 1425
1459 1458 1459 1458 1457 1455 1456 1456 1458 1450 1415 1359 1341 1357 1369 1376 1380 1375 1389 1400 1407 1407 1400 1401 1401 1400 1400 1399 1404 1407 1412 1414 1420 1427 1444 1433 1438 1431 1417 1410 1408 1409 1410 1416 1425
1453 1453 1453 1454 1453 1455 1455 1457 1449 1424 1371 1354 1343 1350 1360 1365 1375 1378 1382 1390 1390 1406 1397 1395 1393 1390 1392 1398 1395 1403 1414 1440 1451 1449 1449 1422 1428 1418 1402 1403 1405 1409 1412 1418 1426
1446 1446 1445 1447 1450 1452 1455 1454 1432 1388 1382 1335 1338 1344 1355 1355 1361 1369 1371 1381 1378 1381 1391 1397 1402 1381 1378 1383 1393 1396 1411 1428 1455 1450 1436 1403 1425 1409 1397 1400 1405 1410 1415 1421 1427
1442 1440 1439 1441 1445 1449 1452 1442 1413 1396 1373 1370 1360 1357 1344 1347 1346 1361 1359 1360 1359 1365 1381 1382 1380 1370 1372 1375 1381 1394 1408 1404 1422 1414 1425 1412 1404 1395 1392 1398 1403 1407 1414 1421 1429
1439 1437 1433 1437 1440 1444 1443 1431 1407 1400 1388 1385 1383 1363 1361 1341 1342 1345 1350 1342 1353 1357 1362 1363 1380 1360 1364 1370 1374 1382 1389 1417 1417 1444 1447 1422 1411 1404 1400 1399 1400 1407 1415 1423 1429
1438 1435 1425 1430 1437 1438 1427 1414 1405 1407 1399 1400 1388 1378 1373 1368 1348 1329 1338 1338 1341 1348 1358 1357 1360 1360 1355 1362 1374 1385 1389 1393 1404 1411 1430 1437 1414 1381 1391 1397 1405 1409 1414 1423 1428
1436 1434 1426 1428 1434 1431 1425 1415 1417 1409 1404 1401 1395 1390 1385 1370 1362 1350 1321 1326 1324 1338 1349 1344 1353 1368 1353 1348 1359 1370 1381 1385 1408 1418 1407 1408 1410 1385 1390 1395 1401 1408 1415 1423 1427
1436 1430 1426 1427 1424 1426 1418 1414 1412 1407 1402 1399 1398 1394 1386 1382 1376 1343 1328 1312 1320 1326 1332 1341 1357 1368 1361 1350 1354 1371 1374 1377 1384 1395 1407 1419 1408 1385 1388 1393 1400 1406 1414 1423 1426
1439 1432 1426 1426 1424 1422 1417 1409 1407 1405 1397 1395 1402 1397 1394 1388 1372 1355 1337 1316 1309 1313 1323 1335 1343 1355 1357 1348 1351 1369 1369 1371 1381 1398 1403 1400 1393 1386 1391 1394 1398 1402 1409 1418 1422
1437 1430 1425 1421 1421 1422 1424 1415 1404 1409 1394 1391 1390 1390 1392 1385 1373 1355 1354 1351 1321 1307 1315 1327 1346 1341 1342 1339 1340 1352 1364 1368 1373 1379 1394 1393 1391 1383 1386 1392 1393 1398 1406 1413 1420
1437 1431 1427 1422 1418 1416 1411 1406 1397 1394 1390 1385 1388 1380 1383 1384 1375 1373 1372 1365 1352 1328 1309 1317 1339 1341 1344 1339 1334 1345 1350 1361 1364 1369 1380 1383 1385 1377 1379 1384 1387 1394 1402 1410 1416
1433 1432 1431 1421 1418 1414 1406 1403 1398 1398 1386 1383 1382 1380 1382 1383 1377 1375 1373 1368 1359 1355 1339 1314 1322 1339 1347 1337 1337 1345 1340 1349 1357 1358 1366 1379 1377 1375 1376 1378 1383 1391 1398 1405 1410
Wind_Speed
23 23 22 23 24 23 24 22 23 22 21 21 21 20 20 22 20 21 28 21 16 20 16 16 19 19 21 24 23 20 13 16 21 21 14 17 14 12 12 8 15 7 5 4 7
25 25 24 25 25 25 25 24 24 23 22 22 21 21 21 23 25 28 29 23 19 20 25 22 23 22 26 26 25 20 14 23 22 20 14 20 16 20 19 15 13 15 12 12 12
24 25 26 26 26 28 27 26 25 24 23 22 21 21 20 20 22 21 19 22 27 27 24 23 24 25 29 28 29 26 21 22 27 25 20 22 21 21 17 10 10 7 1 17 13
22 24 25 25 25 27 28 29 28 27 25 23 22 21 19 13 7 4 3 5 12 24 25 27 30 31 28 24 31 25 31 31 31 24 23 19 29 21 14 12 12 3 4 12 17
24 24 24 24 25 25 26 27 29 28 27 25 22 21 19 15 24 16 22 17 8 24 29 30 36 34 27 28 29 27 26 33 25 19 29 31 26 19 15 13 8 6 10 11 11
23 24 25 24 23 25 26 25 25 26 26 25 24 22 20 22 30 24 23 22 13 17 27 30 32 34 35 30 28 30 31 27 23 32 30 24 20 19 25 13 6 10 12 15 15
25 25 24 24 25 22 23 25 25 23 22 22 23 23 22 35 17 12 19 28 18 19 22 25 29 32 30 28 35 32 26 23 24 23 23 26 19 16 24 16 21 15 18 16 13
24 24 23 23 23 24 21 23 23 23 21 19 20 18 19 21 28 36 22 22 25 28 25 18 21 31 34 30 29 24 26 22 23 22 29 26 19 16 21 20 21 19 16 20 18
22 20 22 25 25 26 26 23 19 19 20 18 18 17 22 13 26 37 31 31 23 21 19 23 25 27 25 21 21 21 18 25 24 23 24 21 18 16 21 22 20 16 17 16 14
20 20 20 22 25 27 28 25 12 18 16 11 16 12 25 27 27 25 31 31 33 23 25 25 26 19 18 17 21 20 23 22 23 23 22 14 17 16 24 25 11 26 22 19 16
21 20 19 21 22 21 24 16 8 7 19 22 17 26 13 6 18 26 22 30 31 30 21 26 15 23 25 26 26 25 23 24 23 17 8 16 22 16 14 18 23 21 16 15 17
24 22 20 19 21 21 19 12 18 13 14 31 41 36 32 22 15 19 20 28 32 27 22 21 26 27 27 24 28 27 26 23 20 19 15 15 14 13 14 18 26 24 21 16 19
22 23 19 19 21 21 18 26 22 18 14 29 39 45 42 35 34 26 30 31 24 27 27 27 27 27 28 25 26 26 25 21 23 17 16 15 14 13 20 22 20 18 8 9 21
23 21 19 17 15 12 18 14 12 9 7 15 28 34 46 38 39 40 31 32 23 28 30 30 26 28 29 28 26 25 25 25 18 15 13 14 13 13 15 17 12 7 12 14 22
21 20 16 15 13 12 12 7 1 5 7 8 37 15 31 44 12 44 45 38 27 26 22 32 29 28 28 28 27 23 23 20 14 15 15 15 12 14 15 18 7 1 7 21 25
21 20 17 16 18 18 13 10 5 7 14 9 12 26 25 35 40 10 49 43 37 25 28 29 30 30 31 26 26 25 22 14 12 12 12 15 15 14 16 4 4 3 2 19 22
21 19 19 15 20 12 9 12 7 14 10 12 21 25 25 27 32 32 31 31 26 26 28 26 32 30 29 29 23 23 14 11 11 11 12 18 18 15 8 9 2 3 13 18 21
20 19 20 20 16 15 11 7 16 20 35 10 19 23 26 24 29 34 26 27 30 31 14 23 22 33 27 30 26 23 17 13 15 11 16 20 17 5 5 6 1 1 8 18 19
18 19 21 19 16 18 10 12 22 28 17 28 29 29 24 25 22 30 34 30 32 32 25 22 29 23 32 24 23 21 22 18 18 17 12 11 11 10 11 8 9 10 12 18 17
16 13 20 16 17 18 7 17 23 29 36 34 29 20 20 19 27 31 31 30 31 33 25 24 18 28 29 25 23 23 19 16 12 16 15 12 15 5 11 6 10 10 9 17 17
11 5 20 18 19 11 7 19 26 36 38 29 28 27 26 25 25 29 32 30 32 32 31 26 16 20 24 27 22 18 20 18 14 14 12 10 10 9 10 12 11 8 15 16 20
6 3 4 22 8 3 9 19 24 27 38 28 24 25 26 25 23 17 27 32 28 30 34 32 11 16 26 26 26 23 23 18 11 16 11 11 5 10 9 9 11 14 17 19 23
6 10 3 19 5 8 15 21 26 26 26 26 23 23 25 25 12 15 22 28 37 32 30 26 20 13 19 22 24 23 23 20 14 9 14 12 11 10 11 11 9 18 22 22 22
6 3 5 9 6 10 16 21 20 23 27 22 20 24 22 22 20 17 22 16 29 30 39 22 19 22 16 18 22 26 24 23 20 13 14 15 16 15 12 9 10 18 26 24 24
5 4 6 4 7 8 12 20 22 19 26 19 22 20 20 21 23 18 16 19 25 22 25 22 27 21 24 24 27 26 26 26 24 19 18 17 17 11 13 10 12 18 24 25 24
5 5 7 14 14 13 13 12 20 20 17 18 16 19 18 21 20 19 22 20 13 19 17 20 23 22 24 27 25 28 27 25 25 23 22 21 18 13 12 27 18 22 20 21 25
8 9 8 9 9 9 9 9 7 14 18 16 16 17 16 19 22 26 30 27 27 22 23 16 20 22 21 23 25 24 27 26 20 21 22 20 15 14 12 10 9 23 19 20 25
Wind_Direction
285 285 284 285 283 284 285 285 287 287 288 288 287 289 289 287 284 282 264 254 239 233 225 221 210 219 223 230 235 243 254 260 270 286 308 309 315 319 297 210 264 220 200 175 163
285 283 280 282 282 283 282 282 282 284 285 286 286 288 289 294 293 278 264 252 219 230 231 213 210 220 230 232 240 235 246 257 270 287 313 315 308 296 304 249 229 201 197 204 187
283 281 281 278 277 278 279 278 279 280 280 282 283 282 287 297 307 278 259 248 243 236 236 224 228 219 230 239 234 237 247 256 272 292 303 298 297 285 281 296 276 14 303 180 190
282 281 278 276 274 274 274 275 277 277 278 278 278 277 278 281 259 256 316 272 229 228 224 222 229 232 227 235 242 249 250 253 258 277 299 277 278 274 286 287 277 280 265 194 204
300 289 282 279 274 271 270 271 273 274 276 278 279 280 277 245 241 248 293 293 267 217 217 219 229 223 238 239 242 253 257 259 271 285 266 265 260 281 275 277 288 283 241 234 237
295 297 298 295 285 276 270 269 268 269 271 274 276 275 274 257 252 256 256 260 252 231 221 219 231 237 242 247 253 254 260 267 267 256 264 269 265 261 266 252 249 260 260 248 233
292 287 292 297 297 288 278 271 267 268 267 266 267 270 262 245 239 236 253 235 234 214 219 225 229 244 249 249 255 263 265 269 259 258 258 270 263 248 273 238 265 251 243 243 262
299 295 286 291 294 294 284 277 271 268 265 265 264 261 256 253 260 244 227 249 236 233 236 235 234 243 253 264 261 256 260 258 260 254 253 237 251 262 254 252 262 247 254 249 232
308 302 287 284 286 291 294 280 274 269 263 260 257 242 264 268 238 242 230 233 231 222 231 237 236 239 239 247 256 246 251 253 258 249 253 239 236 237 261 281 248 239 250 259 237
311 307 310 293 287 286 290 295 269 268 260 253 242 232 253 241 238 235 228 226 228 232 239 241 227 234 224 224 233 235 240 238 252 260 264 218 243 242 237 249 255 271 249 248 228
324 305 302 306 298 290 291 319 264 238 217 211 206 206 244 255 229 225 217 217 222 230 226 225 223 225 224 223 236 243 248 245 251 255 220 236 238 241 259 276 286 286 275 252 202
317 320 306 301 304 293 279 256 236 327 286 241 243 240 243 255 252 224 208 206 209 221 217 217 222 225 230 226 230 242 251 260 273 284 291 289 269 281 288 270 266 265 267 264 170
309 310 310 302 309 296 265 253 265 293 276 266 241 239 234 235 240 230 211 209 210 211 215 220 223 222 233 224 229 233 242 253 261 275 276 282 272 265 263 269 265 258 240 262 154
308 303 307 298 307 311 287 278 254 261 274 255 219 244 228 224 241 225 217 209 216 214 216 228 225 223 225 230 221 232 232 239 252 273 273 287 294 286 298 276 258 249 216 183 162
301 298 295 273 270 288 348 25 227 202 264 235 215 215 201 197 180 215 213 207 211 210 211 226 220 229 219 221 231 233 238 242 237 247 257 268 270 278 289 280 243 151 237 186 166
295 289 285 271 272 272 287 301 262 225 235 240 223 187 192 200 214 224 198 216 214 221 225 230 229 226 232 229 219 233 237 246 254 262 255 252 257 270 266 16 63 341 258 138 152
289 281 268 263 254 261 275 266 213 227 238 252 185 174 196 195 208 226 189 201 208 209 225 220 227 231 232 228 220 222 219 224 225 237 253 251 246 244 287 302 349 317 136 143 150
289 272 265 250 252 256 262 242 225 230 239 276 215 185 199 212 201 211 187 202 209 207 209 219 220 222 216 229 219 203 207 226 222 226 244 244 233 253 106 98 106 77 77 127 150
293 278 263 241 229 237 224 223 226 245 272 242 289 283 202 216 213 203 220 201 203 206 213 206 227 209 227 209 221 199 213 215 253 267 288 269 235 204 173 170 198 193 139 134 153
300 283 262 241 207 220 214 236 247 249 264 288 293 319 311 237 223 194 203 216 208 205 216 233 214 226 208 212 207 223 194 208 229 244 265 281 278 251 137 193 132 118 135 138 155
285 273 296 220 207 201 222 221 238 256 274 286 280 296 306 301 295 211 210 221 202 205 213 226 245 211 207 205 195 205 229 200 226 222 231 248 266 134 149 113 118 144 138 153 161
226 255 301 176 176 246 243 242 265 273 280 289 291 287 286 301 306 296 220 215 206 208 201 216 225 240 210 201 200 208 216 205 212 219 256 260 283 90 103 128 123 123 143 161 165
281 282 276 198 209 235 252 255 257 266 271 267 279 270 283 306 305 288 265 222 219 193 208 204 225 233 234 206 185 212 217 218 218 214 212 232 248 159 162 143 153 150 146 167 169
297 300 215 214 260 280 272 273 284 293 281 261 268 271 275 276 277 278 291 291 208 218 203 188 223 222 222 206 179 195 214 215 213 219 221 238 250 140 152 165 191 156 154 170 174
261 264 302 286 274 294 319 279 276 285 293 237 260 267 264 275 281 273 338 341 319 250 192 188 212 223 229 234 195 196 205 221 216 212 221 223 241 207 174 188 209 161 161 170 179
284 302 325 292 282 278 257 275 270 274 284 298 290 245 253 265 272 310 322 325 291 338 219 188 210 220 218 230 233 202 202 214 225 214 213 230 235 237 190 191 198 159 167 181 179
255 267 299 287 291 297 264 281 289 306 292 254 265 277 287 282 285 290 303 292 286 288 295 194 197 200 225 216 237 215 200 203 217 226 209 216 222 242 245 215 196 147 163 195 184